This is the latest recevied weather packets stored in our database for station/object N3FWE. If no packets are shown the sender has not sent any weather packets the latest 1 day(s).
| Time | Temp. | Humidity | Pressure | Rain* | Wind** | Luminosity | Snow |
|---|---|---|---|---|---|---|---|
| 1836274382 | 21.67° C | 61% | 1020.8 hPa | 0 mm | 0 m/s | - | - |
| 1836274232 | 21.11° C | 63% | 1021 hPa | 0 mm | 0 m/s | - | - |
| 1778080199 | 16.11° C | 92% | 1008.4 hPa | 3.3 mm | 0.45 m/s, 205° | - | - |
| 1778079599 | 16.11° C | 92% | 1008.7 hPa | 3.3 mm | 0.45 m/s, 208° | - | - |
| 1778078999 | 16.11° C | 92% | 1008.8 hPa | 2.79 mm | 0.45 m/s, 208° | - | - |
| 1778078399 | 16.11° C | 91% | 1008.9 hPa | 2.29 mm | 0.45 m/s, 205° | - | - |
| 1778077799 | 16.11° C | 91% | 1009.2 hPa | 2.29 mm | 0.45 m/s, 207° | - | - |
| 1778077199 | 16.11° C | 90% | 1009.3 hPa | 2.29 mm | 0.89 m/s, 202° | - | - |
| 1778076603 | 16.11° C | 90% | 1009.2 hPa | 1.27 mm | 1.34 m/s, 209° | - | - |
| 1778075999 | 16.11° C | 90% | 1009 hPa | 1.27 mm | 0.45 m/s, 238° | - | - |
| 1778075398 | 16.11° C | 90% | 1008.9 hPa | 1.02 mm | 0.45 m/s, 195° | - | - |
| 1778074799 | 16.11° C | 89% | 1008.8 hPa | 1.02 mm | 0.45 m/s, 207° | - | - |
| 1778074199 | 16.11° C | 89% | 1008.8 hPa | 0.76 mm | 0.45 m/s, 222° | - | - |
| 1778073599 | 16.11° C | 88% | 1008.7 hPa | 0.51 mm | 0.45 m/s, 213° | - | - |
| 1778072999 | 16.11° C | 88% | 1009.1 hPa | 0.51 mm | 0.45 m/s, 215° | - | - |
| 1778072399 | 16.11° C | 88% | 1009 hPa | 0.51 mm | 0 m/s | - | - |
| 1778071799 | 16.11° C | 88% | 1008.9 hPa | 0.51 mm | 0 m/s | - | - |
| 1778071199 | 16.11° C | 88% | 1009 hPa | 0.51 mm | 0 m/s | - | - |
| 1778070599 | 16.11° C | 86% | 1009.2 hPa | 0.76 mm | 0 m/s | - | - |
| 1778069999 | 16.11° C | 85% | 1009.3 hPa | 0.51 mm | 0 m/s | - | - |
| 1778069400 | 16.67° C | 84% | 1009.4 hPa | 0.51 mm | 0 m/s | - | - |
| 1778068799 | 16.67° C | 83% | 1009.5 hPa | 0.25 mm | 0 m/s | - | - |
| 1778068200 | 17.22° C | 81% | 1009.5 hPa | 0.25 mm | 0.45 m/s, 229° | - | - |
| 1778067599 | 17.78° C | 79% | 1009.3 hPa | 0.25 mm | 0.45 m/s, 227° | - | - |
| 1778066999 | 18.33° C | 75% | 1009.1 hPa | 0 mm | 1.34 m/s, 223° | - | - |
* Rain latest hour (hover to see other rain measurements)
** Current wind speed in m/s (hover to see current wind gust speed)